DLH3KK EDDF-EDDN

Flight info

Callsign DLH3KK
Flight time 0h 32m
Altitude 25000
Route CINDY8S/18 CINDY Z74 HAREM T104 ELMOX DCT LETKU LETKU1V
Aircraft A319/M-SDE2E3FGIJ1LORWXYZ/HB1

Departure

Time 2026-05-05 16:30
Airport Frankfurt Main Airport (EDDF)

Arrival

Time 2026-05-05 17:03
Airport Nuremberg Airport (EDDN)
Time Latitude Longitude Altitude Speed Heading
2026-05-05 16:05 50.04119 8.55823 359 ft 0 kts 160°
2026-05-05 16:23 50.04104 8.55832 355 ft 8 kts 160°
2026-05-05 16:24 50.04035 8.55856 351 ft 11 kts 195°
2026-05-05 16:24 50.03999 8.55736 350 ft 16 kts 250°
2026-05-05 16:24 50.03982 8.55459 354 ft 10 kts 336°
2026-05-05 16:25 50.04035 8.55430 358 ft 9 kts 340°
2026-05-05 16:25 50.04090 8.55301 357 ft 13 kts 241°
2026-05-05 16:25 50.04049 8.55142 359 ft 18 kts 250°
2026-05-05 16:26 50.03970 8.54809 353 ft 16 kts 248°
2026-05-05 16:26 50.03895 8.54501 348 ft 15 kts 249°
2026-05-05 16:27 50.03854 8.54356 349 ft 14 kts 237°
2026-05-05 16:27 50.03801 8.54233 347 ft 13 kts 246°
2026-05-05 16:27 50.03771 8.54103 350 ft 12 kts 250°
2026-05-05 16:27 50.03737 8.53958 344 ft 17 kts 249°
2026-05-05 16:28 50.03687 8.53752 348 ft 25 kts 249°
2026-05-05 16:28 50.03624 8.53501 341 ft 24 kts 248°
2026-05-05 16:28 50.03567 8.53267 339 ft 22 kts 250°
2026-05-05 16:28 50.03516 8.53048 336 ft 21 kts 250°
2026-05-05 16:29 50.03467 8.52849 337 ft 19 kts 247°
2026-05-05 16:29 50.03418 8.52664 333 ft 18 kts 248°
2026-05-05 16:29 50.03353 8.52594 336 ft 6 kts 184°
2026-05-05 16:29 50.03315 8.52595 336 ft 6 kts 179°
2026-05-05 16:30 50.03041 8.52595 336 ft 81 kts 179°
2026-05-05 16:30 50.02226 8.52601 336 ft 149 kts 180°
2026-05-05 16:30 50.01043 8.52621 568 ft 182 kts 183°
2026-05-05 16:30 49.99754 8.52604 1329 ft 185 kts 183°
2026-05-05 16:31 49.98437 8.52607 2025 ft 198 kts 182°
2026-05-05 16:31 49.97030 8.53002 2525 ft 223 kts 156°
2026-05-05 16:31 49.95873 8.54723 3313 ft 239 kts 123°
2026-05-05 16:31 49.95062 8.56998 4410 ft 240 kts 121°
2026-05-05 16:32 49.94297 8.59311 5491 ft 243 kts 112°
2026-05-05 16:32 49.93976 8.61963 6257 ft 263 kts 96°
2026-05-05 16:32 49.93851 8.64899 6962 ft 278 kts 96°
2026-05-05 16:32 49.93465 8.67816 7921 ft 281 kts 112°
2026-05-05 16:33 49.92515 8.70468 8962 ft 282 kts 130°
2026-05-05 16:33 49.91079 8.72531 9973 ft 283 kts 146°
2026-05-05 16:33 49.89447 8.74424 10490 ft 305 kts 140°
2026-05-05 16:33 49.87958 8.76919 11095 ft 321 kts 129°
2026-05-05 16:34 49.86786 8.79895 12011 ft 326 kts 121°
2026-05-05 16:34 49.85695 8.82952 12979 ft 329 kts 121°
2026-05-05 16:34 49.84589 8.86065 13938 ft 330 kts 121°
2026-05-05 16:34 49.83480 8.89197 14779 ft 334 kts 121°
2026-05-05 16:35 49.82344 8.92367 15530 ft 339 kts 121°
2026-05-05 16:35 49.81182 8.95565 16300 ft 342 kts 121°
2026-05-05 16:35 49.79997 8.98800 17069 ft 346 kts 121°
2026-05-05 16:35 49.78802 9.02065 17853 ft 350 kts 121°
2026-05-05 16:36 49.77596 9.05358 18543 ft 354 kts 121°
2026-05-05 16:36 49.76436 9.08756 19169 ft 360 kts 115°
2026-05-05 16:36 49.75664 9.12473 19826 ft 367 kts 106°
2026-05-05 16:36 49.74983 9.16244 20486 ft 368 kts 113°
2026-05-05 16:37 49.73857 9.19823 21168 ft 369 kts 124°
2026-05-05 16:37 49.72311 9.22974 21848 ft 370 kts 133°
2026-05-05 16:37 49.70604 9.25967 22531 ft 373 kts 133°
2026-05-05 16:37 49.68878 9.28997 23193 ft 377 kts 133°
2026-05-05 16:38 49.67148 9.32066 23669 ft 380 kts 131°
2026-05-05 16:38 49.65770 9.35505 23802 ft 384 kts 116°
2026-05-05 16:38 49.64768 9.39331 23834 ft 384 kts 114°
2026-05-05 16:38 49.63797 9.43172 23835 ft 384 kts 113°
2026-05-05 16:39 49.62832 9.47029 23836 ft 384 kts 113°
2026-05-05 16:39 49.61867 9.50877 23831 ft 384 kts 113°
2026-05-05 16:39 49.60902 9.54711 23835 ft 384 kts 113°
2026-05-05 16:39 49.59940 9.58513 23835 ft 384 kts 114°
2026-05-05 16:40 49.58964 9.62344 23836 ft 384 kts 114°
2026-05-05 16:40 49.57975 9.66219 23835 ft 384 kts 114°
2026-05-05 16:40 49.57011 9.70008 23836 ft 384 kts 114°
2026-05-05 16:40 49.56030 9.73837 23836 ft 384 kts 114°
2026-05-05 16:41 49.55047 9.77659 23840 ft 383 kts 114°
2026-05-05 16:41 49.54065 9.81482 23835 ft 383 kts 114°
2026-05-05 16:41 49.53083 9.85297 23835 ft 383 kts 114°
2026-05-05 16:41 49.52099 9.89108 23838 ft 383 kts 114°
2026-05-05 16:42 49.51109 9.92932 23834 ft 384 kts 114°
2026-05-05 16:42 49.50452 9.95464 23838 ft 384 kts 114°
2026-05-05 16:42 49.49399 10.00659 23693 ft 382 kts 101°
2026-05-05 16:42 49.49052 10.04657 23472 ft 372 kts 100°
2026-05-05 16:43 49.48731 10.08562 23208 ft 362 kts 100°
2026-05-05 16:43 49.48424 10.12353 22937 ft 354 kts 100°
2026-05-05 16:43 49.48119 10.16084 22665 ft 350 kts 100°
2026-05-05 16:43 49.47811 10.19792 22398 ft 348 kts 100°
2026-05-05 16:44 49.47605 10.22232 22220 ft 347 kts 101°
2026-05-05 16:44 49.47289 10.25908 21858 ft 346 kts 101°
2026-05-05 16:44 49.46973 10.29566 21413 ft 344 kts 101°
2026-05-05 16:44 49.46660 10.33200 20957 ft 341 kts 101°
2026-05-05 16:45 49.46349 10.36810 20526 ft 339 kts 101°
2026-05-05 16:45 49.46040 10.40393 20102 ft 337 kts 101°
2026-05-05 16:45 49.45734 10.43949 19684 ft 335 kts 101°
2026-05-05 16:45 49.45426 10.47491 19272 ft 333 kts 101°
2026-05-05 16:46 49.45116 10.51008 18866 ft 332 kts 101°
2026-05-05 16:46 49.44807 10.54495 18471 ft 331 kts 101°
2026-05-05 16:46 49.44497 10.58008 18066 ft 331 kts 101°
2026-05-05 16:46 49.44187 10.61514 17627 ft 330 kts 101°
2026-05-05 16:47 49.43879 10.65010 17170 ft 329 kts 101°
2026-05-05 16:47 49.43571 10.68485 16726 ft 328 kts 100°
2026-05-05 16:47 49.43258 10.71955 16287 ft 326 kts 101°
2026-05-05 16:47 49.42932 10.75392 15845 ft 325 kts 101°
2026-05-05 16:48 49.42603 10.78797 15324 ft 320 kts 102°
2026-05-05 16:48 49.42281 10.82144 14832 ft 313 kts 102°
2026-05-05 16:48 49.41966 10.85393 14344 ft 309 kts 102°
2026-05-05 16:48 49.41649 10.88643 13866 ft 306 kts 102°
2026-05-05 16:49 49.41330 10.91883 13374 ft 308 kts 102°
2026-05-05 16:49 49.41006 10.95163 12840 ft 312 kts 102°
2026-05-05 16:49 49.40682 10.98478 12320 ft 314 kts 102°
2026-05-05 16:49 49.40358 11.01798 11811 ft 315 kts 102°
2026-05-05 16:50 49.40032 11.05128 11306 ft 315 kts 102°
2026-05-05 16:50 49.39703 11.08464 10809 ft 316 kts 102°
2026-05-05 16:50 49.39377 11.11767 10322 ft 316 kts 102°
2026-05-05 16:50 49.39046 11.15105 9838 ft 315 kts 102°
2026-05-05 16:51 49.38715 11.18414 9302 ft 310 kts 102°
2026-05-05 16:51 49.38394 11.21628 8772 ft 299 kts 101°
2026-05-05 16:51 49.38083 11.24743 8260 ft 291 kts 101°
2026-05-05 16:51 49.37782 11.27768 7731 ft 284 kts 101°
2026-05-05 16:52 49.37483 11.30763 7233 ft 283 kts 101°
2026-05-05 16:52 49.37185 11.33718 6750 ft 284 kts 101°
2026-05-05 16:52 49.36879 11.36729 6264 ft 285 kts 102°
2026-05-05 16:52 49.36576 11.39712 5744 ft 278 kts 101°
2026-05-05 16:53 49.36283 11.42601 5242 ft 270 kts 101°
2026-05-05 16:53 49.35994 11.45421 4747 ft 265 kts 100°
2026-05-05 16:53 49.35795 11.48274 4225 ft 274 kts 86°
2026-05-05 16:53 49.36345 11.50925 3974 ft 256 kts 54°
2026-05-05 16:54 49.37583 11.52619 3962 ft 228 kts 20°
2026-05-05 16:54 49.39078 11.52997 3958 ft 214 kts 353°
2026-05-05 16:54 49.40550 11.52760 3953 ft 212 kts 348°
2026-05-05 16:54 49.42001 11.52445 3953 ft 207 kts 347°
2026-05-05 16:55 49.43350 11.52027 3987 ft 193 kts 337°
2026-05-05 16:55 49.44492 11.51056 3957 ft 185 kts 317°
2026-05-05 16:55 49.45337 11.49610 3963 ft 180 kts 299°
2026-05-05 16:55 49.45821 11.47898 3954 ft 168 kts 282°
2026-05-05 16:56 49.46017 11.46105 3962 ft 170 kts 276°
2026-05-05 16:56 49.46205 11.44304 3959 ft 170 kts 276°
2026-05-05 16:56 49.46388 11.42514 3955 ft 169 kts 277°
2026-05-05 16:56 49.46569 11.40746 3970 ft 170 kts 277°
2026-05-05 16:57 49.46752 11.38943 3962 ft 170 kts 277°
2026-05-05 16:57 49.46935 11.37144 3962 ft 170 kts 277°
2026-05-05 16:57 49.47116 11.35360 3962 ft 165 kts 277°
2026-05-05 16:57 49.47280 11.33752 3960 ft 139 kts 276°
2026-05-05 16:58 49.47423 11.32333 3888 ft 132 kts 276°
2026-05-05 16:58 49.47561 11.30962 3758 ft 127 kts 277°
2026-05-05 16:58 49.47695 11.29629 3613 ft 125 kts 277°
2026-05-05 16:58 49.47828 11.28312 3452 ft 124 kts 276°
2026-05-05 16:59 49.47960 11.26996 3296 ft 124 kts 276°
2026-05-05 16:59 49.48090 11.25697 3136 ft 124 kts 276°
2026-05-05 16:59 49.48222 11.24383 2974 ft 124 kts 275°
2026-05-05 16:59 49.48353 11.23072 2813 ft 123 kts 276°
2026-05-05 17:00 49.48483 11.21768 2649 ft 123 kts 276°
2026-05-05 17:00 49.48613 11.20469 2491 ft 122 kts 277°
2026-05-05 17:00 49.48742 11.19178 2332 ft 121 kts 277°
2026-05-05 17:00 49.48866 11.17894 2164 ft 121 kts 276°
2026-05-05 17:01 49.48986 11.16629 1988 ft 122 kts 275°
2026-05-05 17:01 49.49123 11.15333 1808 ft 122 kts 276°
2026-05-05 17:01 49.49267 11.14049 1634 ft 123 kts 277°
2026-05-05 17:01 49.49392 11.12757 1485 ft 121 kts 275°
2026-05-05 17:02 49.49516 11.11480 1280 ft 120 kts 275°
2026-05-05 17:02 49.49643 11.10102 1210 ft 138 kts 277°
2026-05-05 17:02 49.49786 11.08695 1069 ft 125 kts 278°
2026-05-05 17:02 49.49887 11.07637 1034 ft 62 kts 278°
2026-05-05 17:03 49.49924 11.07251 1029 ft 30 kts 278°
2026-05-05 17:03 49.49919 11.07025 1024 ft 14 kts 207°
2026-05-05 17:03 49.49837 11.07042 1022 ft 12 kts 163°
2026-05-05 17:03 49.49775 11.07077 1022 ft 5 kts 155°
2026-05-05 17:04 49.49756 11.07099 1025 ft 2 kts 138°
2026-05-05 17:04 49.49750 11.07108 1026 ft 2 kts 134°
2026-05-05 17:04 49.49736 11.07220 1025 ft 14 kts 102°
2026-05-05 17:04 49.49722 11.07355 1029 ft 12 kts 98°
2026-05-05 17:05 49.49710 11.07470 1031 ft 12 kts 98°
2026-05-05 17:05 49.49697 11.07601 1034 ft 11 kts 99°
2026-05-05 17:05 49.49686 11.07714 1033 ft 11 kts 98°
2026-05-05 17:05 49.49625 11.07766 1031 ft 12 kts 188°
2026-05-05 17:06 49.49552 11.07801 1027 ft 11 kts 187°
2026-05-05 17:06 49.49517 11.07790 1028 ft 0 kts 190°